Home > Weather > Ellwangen (Jagst) > Past weeks

Flag for Germany Past Weather in Ellwangen (Jagst), Baden-Württemberg, Germany — Yesterday and Last 2 Weeks

Now
73 °F

Broken clouds.


Feels Like: 76 °F
Forecast: 54 / 67 °F
Wind: 6 mph from West

Location: Niederstetten

Current Time: Jun 25, 2016 at 2:28:18 PM

Latest Report: Jun 25, 2016 at 1:20 PM


Visibility: N/A

Pressure: 29.95 "Hg

Humidity: 61%

Dew Point: 59 °F

Location of Ellwangen (Jagst)Location

Past Weather in Ellwangen (Jagst) — Graph

°F

Ellwangen (Jagst) Temperature Yesterday

Maximum temperature yesterday: 88 °F (at 2:20 PM)
Minimum temperature yesterday: 64 °F (at 3:20 AM)
Average temperature yesterday: 78 °F

High & Low Weather Summary for the Past Weeks

 TemperatureHumidityPressure
High88 °F (Jun 23, 5:00 PM)100% (Jun 11, 9:20 PM)30.27 "Hg (Jun 11, 9:20 PM)
Low46 °F (Jun 20, 3:20 AM)40% (Jun 24, 5:20 PM)29.56 "Hg (Jun 14, 2:20 PM)
Average61 °F79%29.93 "Hg
* Reported Jun 10 12:00 PM — Jun 25 12:20 PM, Ellwangen (Jagst), Weather by CustomWeather, © 2016

Note: Actual official high and low records may vary slightly from our data, if they occured in-between our weather recording intervals... More about our weather records

Advertising

Ellwangen (Jagst) Weather History for the Previous 24 Hours

Scroll right to see more
 ConditionsComfort  
Time TempWeatherWind HumidityBarometerVisibility
12:20 PM
Sat, Jun 25
73 °FPartly sunny.6 mph65%29.95 "HgN/A
11:20 AM70 °FPartly sunny.5 mph73%29.95 "HgN/A
10:20 AM68 °FPartly sunny.3 mph78%29.98 "HgN/A
9:20 AM66 °FBroken clouds.5 mph83%29.95 "HgN/A
8:20 AM66 °FBroken clouds.9 mph83%29.98 "HgN/A
7:20 AM64 °FBroken clouds.6 mph88%29.95 "HgN/A
6:20 AM63 °FBroken clouds.5 mph94%29.95 "HgN/A
5:20 AM63 °FPartly cloudy.3 mph94%29.95 "HgN/A
4:20 AM64 °FPartly cloudy.6 mph83%29.95 "HgN/A
3:20 AM68 °FThundershowers. Mostly cloudy.7 mph69%29.95 "HgN/A
2:20 AM64 °FThunderstorms. Mostly cloudy.9 mph88%30.01 "HgN/A
1:20 AM66 °FThunderstorms. Mostly cloudy.12 mph83%30.04 "Hg6 mi
12:20 AM72 °FThundershowers. Mostly cloudy.5 mph78%30.01 "HgN/A
11:20 PM
Fri, Jun 24
73 °FPassing clouds.8 mph74%30.01 "HgN/A
10:20 PM75 °FPassing clouds.10 mph69%30.01 "HgN/A
9:20 PM77 °FPassing clouds.7 mph69%30.01 "HgN/A
8:20 PM81 °FPassing clouds.9 mph62%30.01 "HgN/A
7:20 PM86 °FPassing clouds.5 mph46%30.01 "HgN/A
6:20 PM88 °FPassing clouds.6 mph43%30.01 "HgN/A
5:20 PM88 °FPassing clouds.7 mph40%30.01 "HgN/A
4:20 PM88 °FPassing clouds.6 mph46%30.04 "HgN/A
3:20 PM88 °FPassing clouds.6 mph43%30.04 "HgN/A
2:20 PM88 °FPassing clouds.5 mph46%30.07 "HgN/A
2:00 PM86 °FPassing clouds.3 mph49%30.07 "HgN/A
Weather by CustomWeather, © 2016

See weather overviewHow to use our weather pages